{"data":{"norad_id":68426,"intl_designator":"2026-067L","name":"TRANSPORTER-16 OBJECT L","alt_names":[],"object_type":"PAYLOAD","status":"ACTIVE","operator":null,"country":"TBD","launch_date":"2026-03-30","launch_site_code":"AFWTR","launch_vehicle":null,"mission":null,"orbit_class":"UNKNOWN","rcs_meters":null,"size_class":null,"mass_kg":null,"dimensions":null,"purposes":[],"wikipedia_slug":null,"has_3d_model":false,"image_url":null,"decayed_at":null,"tle_current":{"epoch":"2026-09-19T03:06:12.906720Z","epoch_age_seconds":187664,"freshness":"STALE","line1":"1 68426U 26067L   26262.12931605  .00011314  00000+0  50461-3 0  9990","line2":"2 68426  97.4641 219.7284 0003125  61.0749 299.0800 15.21561554 26225","mean_motion":15.21561554,"eccentricity":0.0003125,"inclination_deg":97.4641,"raan_deg":219.7284,"arg_perigee_deg":61.0749,"mean_anomaly_deg":299.08,"bstar":0.00050461,"rev_number":2622,"period_min":94.639615217302,"perigee_km":498.98009364,"apogee_km":503.27963543033,"semimajor_km":6879.2668645352,"source":"CELESTRAK","updated_at":"2026-09-20T09:00:24.200741Z"}}}